Regional Weather Roundup
Issued by NWS State College, PA

Home | Current Version | Previous Version | Graphics & Text | Print | Product List | Glossary On
Versions: 1 2 3 4 5 6 7 8 9 10 11 12 13 14 15 16 17 18 19 20 21 22 23 24 25 26 27 28 29 30 31 32 33 34 35 36 37 38 39 40 41 42 43 44 45 46 47 48 49 50
000
ASUS41 KCTP 222210
RWRCTP

REGIONAL WEATHER ROUNDUP
NATIONAL WEATHER SERVICE STATE COLLEGE PA
600 PM EDT MON MAY 22 2017

Note: "fair" indicates few or no clouds below 12,000 feet with no
significant weather and/or obstructions to visibility.

* = STATION THAT DOES NOT REPORT PRECIPITATION /E.G. RAIN...SNOW...ETC/
    THUNDER OR FOG.

PAZ002>004-007>009-013>016-020>023-029>032-222300-
WESTERN PENNSYLVANIA

CITY           SKY/WX    TMP DP  RH WIND       PRES   REMARKS
ERIE           CLOUDY    61  43  51 W13G23    30.01S
MEADVILLE      PTSUNNY   61  45  55 W7        30.02S
FRANKLIN*      PTSUNNY   63  45  51 W10       30.02F
NEW CASTLE     FAIR      64  44  48 NW7       30.03F
BEAVER COUNTY  SUNNY     64  45  48 W12       30.03S
BUTLER*        CLOUDY    64  45  48 W10G16    30.02F
PITTSBURGH INT CLOUDY    65  47  52 W8        30.02F
PITTSBURGH     CLOUDY    65  45  48 W6        30.01F
INDIANA*       NOT AVBL
LATROBE        PTSUNNY   64  50  59 W12       30.03F
WASHINGTON CO* CLOUDY    64  46  52 SW7       30.05S
$$

PAZ004>006-010>012-017>019-024>028-033>037-041-042-045-046-049>053-222300-
CENTRAL PENNSYLVANIA

CITY           SKY/WX    TMP DP  RH WIND       PRES   REMARKS
BRADFORD       CLOUDY    62  43  49 W14G21    29.99R
DUBOIS         CLOUDY    62  44  51 W14       29.99S
CLEARFIELD     CLOUDY    65  48  54 W13G20    29.99R
JOHNSTOWN      CLOUDY    61  49  64 W12G17    30.02R
ALTOONA        CLOUDY    68  51  54 NW15      29.98R
STATE COLLEGE  MOSUNNY   70  50  49 W12G21    29.96R
WILLIAMSPORT   PTSUNNY   66  58  75 E6        29.93R
SELINSGROVE    CLOUDY    64  59  83 S6        29.95S
FT INDIANTOWN  CLOUDY    59  59 100 E5        29.96F
CAPITAL CITY   CLOUDY    64  58  80 E6        29.96S
HARRISBURG     CLOUDY    64  61  90 S3        29.95F
YORK           CLOUDY    65  63  93 E5        29.96R
$$

PAZ038>040-043-044-047-048-054-055-060>062-067>071-222300-
EASTERN PENNSYLVANIA

CITY           SKY/WX    TMP DP  RH WIND       PRES   REMARKS
SCRANTON       CLOUDY    63  56  78 S5        29.95F
MOUNT POCONO   CLOUDY    54  54 100 SE5       29.98S FOG
ALLENTOWN      CLOUDY    61  56  83 N3        29.97F
QUAKERTOWN*    CLOUDY    61  61 100 CALM      29.98S
READING        CLOUDY    63  60  90 CALM      29.96F
LANCASTER      CLOUDY    64  61  90 CALM      29.97S
COATESVILLE    CLOUDY    63  63 100 CALM      29.98F FOG
POTTSTOWN      CLOUDY    62  60  93 CALM      29.98S
BLUE BELL      CLOUDY    61  61 100 CALM      29.98F
DOYLESTOWN     CLOUDY    61  61 100 CALM      29.97S
WILLOW GROVE   NOT AVBL
NORTH PHILA    CLOUDY    65  62  90 CALM      29.98S
PHILADELPHIA   CLOUDY    65  62  90 S3        29.97S
$$




USA.gov is the U.S. government's official web portal to all federal, state and local government web resources and services.